Showing default

CATSAT, 60246

Orbit data source: Space-Track

CATSAT, 60246 is a payload satellite owned by U. Arizona (US) in SSO that was launched on Thu, 04 Jul 2024 UTC via an FIREFLY ALPHA launch vehicle from the Air Force Western Test Range (AFWTR). Payload-class satellites include a variety of spacecraft equipped with specific instruments for various scientific and technological missions. These include communications satellites like Starlink; space stations such as the ISS; scientific satellites like the Hubble; Earth observation satellites from companies like Planet Labs, Umbra, and HawkEye 360; GPS; miniature CubeSats for education and research; and military/defense satellites.

Loading next visibility...
Identifier
60246, 2024-125J
Orbit
SSO
Country
Flag of USUS
Related business
Manufacturer
U. Arizona
Mission
Operational Amateur Technology
Bus & Motor
CUBESAT 6U, Unknown motor
Mass
12 kg wet, ~12 kg dry
Launch date (UTC)
2024-07-04 (2 years ago)
Launch vehicle
FIREFLY ALPHA
Launch site
Air Force Western Test Range (AFWTR)
Object type
Payload
Rocket body
Debris
Shape & HBR
Box + Inf Sphere + 1 Pan, 0.4 m
Radar Cross Section
0.050 m², Medium (>0.1 m² and < 1m²)

Expand to show TLE details & history
Last TLE update: 12 hours ago

TLE from 12 hours ago
0 CATSAT
1 60246U 24125J   26267.03294742  .00125516  00000-0  88646-3 0  9991
2 60246  97.1935 121.7479 0015265 164.4893 195.6842 15.73503194122850
Epoch: 2026-09-24T00:47Z
TLE epoch observation values (Epoch: 2026-09-24T00:47:26.657Z)
Latitude
-0.00005°
Longitude
107.0113°
Altitude
361.952 km
Speed
7.686 km/s
True Right ascension
08h 06m 59s
True Declination
0° 00' 00"
Sunlit
Object was in daylight at epoch
Visualization orbit readout
Latitude
Unknown
Longitude
Unknown
Altitude
Unknown
Speed
Unknown
Apparent Right ascension
Unknown
Apparent Declination
Unknown
Sunlit
N/A
Visualization observer readout
Local Sidereal Time
06:20:10
Azimuth
Unknown
Elevation
Unknown
Doppler factor
Unknown
Orbital elements
Apogee altitude
356.044 km
Perigee altitude
335.516 km
Semi-major axis
6,723.917 km
Eccentricity
0.00153
Inclination
97.1935°
RAAN
121.7479°
Arg. of periapsis
164.4893°
True anomaly
195.637°
Mean anomaly
195.6842°
Eccentric anomaly
195.66059°
Mean motion
3.93649 °/min
Orbital period
91.45 mins
BSTAR
0.00088646
Loading maneuver chart data...
Computing Atmospheric mass density...
Loading historical data...
Loading historical data...
Loading historical data...
Loading historical data...
Loading historical data...
Loading historical data...
Loading historical data...

Documentation

Showing up to 5 results
|